STARLINK-35997, 66843

Orbit data source: Space-Track

STARLINK-35997, 66843 is a payload satellite owned by SpaceX/Seattle (US) in LEO that was launched on Tue, 02 Dec 2025 UTC via an FALCON 9 launch vehicle from the Air Force Western Test Range (AFWTR). Payload-class satellites include a variety of spacecraft equipped with specific instruments for various scientific and technological missions. These include communications satellites like Starlink; space stations such as the ISS; scientific satellites like the Hubble; Earth observation satellites from companies like Planet Labs, Umbra, and HawkEye 360; GPS; miniature CubeSats for education and research; and military/defense satellites.

Loading next visibility...
Identifier
66843, 2025-280Y
Orbit
LEO
Country
Flag of USUS
Related business
Manufacturer
SpaceX/Seattle
Mission
Operational Commercial Communications
Bus & Motor
STARLINK V2MO, Unknown motor
Mass
575 kg wet, ~530 kg dry
Launch date (UTC)
2025-12-02 (7 months ago)
Launch vehicle
FALCON 9
Launch site
Air Force Western Test Range (AFWTR)
Object type
Payload
Rocket body
Debris
Shape & HBR
Box + 2 Pan, 17.7 m
Radar Cross Section
36.964 m², Large (>1 m²)

Expand to show TLE details & history
Last TLE update: 17 hours ago

TLE from 17 hours ago
0 STARLINK-35997
1 66843U 25280Y   26171.14106796  .00003298  00000-0  28398-3 0  9990
2 66843  70.0012  76.0775 0002593 271.5472  88.5390 14.98343136 31423
Epoch: 2026-06-20T03:23Z
TLE epoch observation values (Epoch: 2026-06-20T03:23:08.271Z)
Latitude
-0.00004°
Longitude
116.93307°
Altitude
574.394 km
Speed
7.574 km/s
True Right ascension
05h 04m 18s
True Declination
0° 00' 00"
Sunlit
Object was in daylight at epoch
Visualization orbit readout
Latitude
Unknown
Longitude
Unknown
Altitude
Unknown
Speed
Unknown
Apparent Right ascension
Unknown
Apparent Declination
Unknown
Sunlit
N/A
Visualization observer readout
Local Sidereal Time
07:15:04
Azimuth
Unknown
Elevation
Unknown
Doppler factor
Unknown
Orbital elements
Apogee altitude
571.765 km
Perigee altitude
568.162 km
Semi-major axis
6,948.1 km
Eccentricity
0.00026
Inclination
70.0012°
RAAN
76.0775°
Arg. of periapsis
271.5472°
True anomaly
88.5687°
Mean anomaly
88.539°
Eccentric anomaly
88.55385°
Mean motion
3.74752 °/min
Orbital period
96.06 mins
BSTAR
0.00028398
Loading maneuver chart data...
Computing Atmospheric mass density...
Loading historical data...
Loading historical data...
Loading historical data...
Loading historical data...
Loading historical data...
Loading historical data...
Loading historical data...

Documentation

Showing up to 5 results
|